User: anonymous   Login
Location: Innerarity Island Observatory
(30.3139°N, 87.4867°W)
Time: 11:04:53
(UTC-05:00)
Language:

OPAL - Orbit

View from above orbital plane
View from above orbital plane
View from above satellite
View from above satellite

Ground track
Ground track

The orbit data is extracted from the following two-line orbital elements,

1 26063U 00004C   17179.57135690 -.00000024 +00000-0 +12139-4 0  9999
2 26063 100.2283 185.2945 0035727 276.7323 082.9793 14.36666592912810
Epoch (UTC): 28 June 2017 13:42:45
Eccentricity: 0.0035727
inclination: 100.2283°
perigee height: 744 km
apogee height: 795 km
right ascension of ascending node: 185.2945°
argument of perigee: 276.7323°
revolutions per day: 14.36666592
mean anomaly at epoch: 82.9793°
orbit number at epoch: 91281

The dashed part of the orbit path shows where the satellite is in the earth's shadow,  

DLR